GW4479 Weather Reports


time (UTC)temp
F
wind
direction
speed
knots
gust
knots
rain 1hr
in
rain 24hr
in
rain mn
in
humidity
%
barometer
mb
20260507134552 57 0 0.0 0.0 0.00 0.00 0.00 89 1016.4
20260507133055 56 0 0.0 0.9 0.00 0.00 0.00 89 1016.3
20260507131554 56 0 0.0 0.0 0.00 0.00 0.00 89 1016.1
20260507130106 56 0 0.0 0.0 0.00 0.00 0.00 88 1016.1
20260507124632 56 0 0.0 2.6 0.00 0.00 0.00 88 1016.1
20260507123055 56 0 0.0 0.0 0.00 0.00 0.00 88 1016.1
20260507121556 56 0 0.0 2.6 0.00 0.00 0.00 88 1016.1
20260507120053 56 0 0.0 2.6 0.00 0.00 0.00 88 1016.1
20260507114613 56 0 0.0 2.6 0.00 0.00 0.00 89 1016.0
20260507113057 57 0 0.0 0.0 0.00 0.00 0.00 89 1016.1
20260507111555 57 0 0.0 2.6 0.00 0.00 0.00 89 1016.1
20260507110059 57 60 0.0 1.7 0.00 0.00 0.00 89 1016.1
20260507104557 57 0 0.0 0.9 0.00 0.00 0.00 89 1016.2
20260507103054 57 0 0.0 1.7 0.00 0.00 0.00 89 1016.3
20260507101559 57 0 0.0 0.0 0.00 0.00 0.00 89 1016.4
20260507100056 57 0 0.0 1.7 0.00 0.00 0.00 88 1016.3
20260507094555 57 0 0.0 1.7 0.00 0.00 0.00 88 1016.4
20260507093053 57 11 0.9 2.6 0.00 0.00 0.00 88 1016.4
20260507091556 58 13 0.0 1.7 0.00 0.00 0.00 88 1016.6
20260507090051 58 0 0.0 0.0 0.00 0.00 0.00 87 1016.8
20260507084553 59 13 0.0 1.7 0.00 0.00 0.00 86 1016.9
20260507083051 59 5 0.0 1.7 0.00 0.00 0.00 86 1017.1
20260507081553 60 0 0.0 1.7 0.00 0.00 0.00 86 1017.3
20260507080100 60 42 0.0 1.7 0.00 0.00 0.00 87 1017.3
20260507074606 60 0 0.0 0.9 0.00 0.00 0.00 87 1017.4
20260507073052 60 0 0.0 0.9 0.00 0.00 0.00 87 1017.3
20260507071554 60 0 0.0 1.7 0.00 0.00 0.00 87 1017.3
20260507070107 61 0 0.0 2.6 0.00 0.00 0.00 87 1017.4
20260507064604 61 0 0.9 2.6 0.00 0.00 0.00 87 1017.5
20260507063100 61 282 1.7 2.6 0.00 0.00 0.00 87 1017.6
20260507061555 61 279 0.9 3.5 0.00 0.00 0.00 86 1017.6
20260507060054 61 268 1.7 3.5 0.00 0.00 0.00 85 1017.7
20260507054555 61 252 0.0 2.6 0.00 0.00 0.00 85 1017.5
20260507053051 61 298 0.0 1.7 0.00 0.00 0.00 84 1017.4
20260507051555 62 286 0.9 1.7 0.00 0.00 0.00 83 1017.7
20260507050053 62 0 0.0 2.6 0.00 0.00 0.00 80 1017.6
20260507044606 62 0 0.9 2.6 0.00 0.00 0.00 79 1017.5
20260507043109 62 288 0.9 3.5 0.00 0.00 0.00 79 1017.3
20260507041559 62 290 0.9 3.5 0.00 0.00 0.00 81 1017.6
20260507040110 63 310 0.9 5.2 0.00 0.00 0.00 81 1017.4
20260507034618 63 292 2.6 7.0 0.00 0.00 0.00 81 1017.1
20260507033103 63 264 3.5 6.1 0.00 0.00 0.00 82 1016.9
20260507031618 63 273 3.5 7.8 0.00 0.00 0.00 82 1016.9
20260507030057 63 291 3.5 7.8 0.00 0.00 0.00 81 1016.7
20260507024556 63 274 4.3 7.8 0.00 0.00 0.00 81 1016.5
20260507023051 64 317 5.2 9.6 0.00 0.00 0.00 79 1016.4
20260507021556 65 306 7.0 11.3 0.00 0.00 0.00 76 1016.3
20260507020053 66 274 5.2 9.6 0.00 0.00 0.00 72 1016.3
20260507014555 66 295 7.0 10.4 0.00 0.00 0.00 70 1016.3
20260507013108 66 280 6.1 12.2 0.00 0.00 0.00 69 1016.2
20260507011558 67 263 6.1 10.4 0.00 0.00 0.00 67 1016.3
20260507010104 67 271 7.8 12.2 0.00 0.00 0.00 68 1016.2
20260507004552 67 265 7.8 13.0 0.00 0.00 0.00 68 1016.2
20260507003056 68 300 7.0 13.0 0.00 0.00 0.00 66 1016.1
20260507001555 68 268 6.1 11.3 0.00 0.00 0.00 69 1015.9
20260507000051 68 311 6.1 13.9 0.00 0.00 0.00 67 1016.0
20260506234555 68 340 6.1 13.0 0.00 0.00 0.00 68 1015.9
20260506233103 68 273 8.7 13.9 0.00 0.00 0.00 66 1016.0
20260506231551 68 269 7.8 13.9 0.00 0.00 0.00 66 1016.0
20260506230103 67 294 9.6 15.6 0.00 0.00 0.00 68 1016.1
20260506224550 68 281 7.8 13.9 0.00 0.00 0.00 67 1016.1
20260506223053 68 309 7.8 14.8 0.00 0.00 0.00 68 1016.2
20260506221557 68 232 6.1 13.9 0.00 0.00 0.00 68 1016.3
20260506220050 68 258 6.1 14.8 0.00 0.00 0.00 68 1016.6
20260506214600 67 282 7.8 15.6 0.00 0.00 0.00 68 1016.7
20260506213050 68 244 8.7 14.8 0.00 0.00 0.00 67 1016.8
20260506211607 67 269 7.8 13.9 0.00 0.00 0.00 68 1016.9
20260506210055 67 281 8.7 16.5 0.00 0.00 0.00 68 1016.9
20260506204556 67 285 9.6 15.6 0.00 0.00 0.00 68 1017.0
20260506203058 68 250 7.8 14.8 0.00 0.00 0.00 67 1017.2
20260506201551 67 263 7.8 14.8 0.00 0.00 0.00 66 1017.2
20260506200051 68 275 7.8 16.5 0.00 0.00 0.00 66 1017.2
20260506194554 67 254 8.7 13.9 0.00 0.00 0.00 66 1017.5
20260506193049 67 253 7.8 13.9 0.00 0.00 0.00 66 1017.6
20260506191549 67 246 8.7 13.9 0.00 0.00 0.00 66 1017.5
20260506190052 67 196 7.0 13.9 0.00 0.00 0.00 66 1017.6
20260506184551 67 256 7.0 12.2 0.00 0.00 0.00 66 1017.8
20260506183053 67 248 7.0 11.3 0.00 0.00 0.00 67 1018.0
20260506181553 66 253 6.1 13.9 0.00 0.00 0.00 68 1018.1
20260506180055 66 248 6.1 12.2 0.00 0.00 0.00 66 1018.3
20260506174554 66 289 7.0 12.2 0.00 0.00 0.00 66 1018.3
20260506173104 67 290 6.1 9.6 0.00 0.00 0.00 62 1018.3
20260506171557 67 298 4.3 9.6 0.00 0.00 0.00 62 1018.4
20260506170059 67 249 1.7 8.7 0.00 0.00 0.00 61 1018.3
20260506164612 66 13 4.3 7.8 0.00 0.00 0.00 63 1018.2
20260506163059 64 294 2.6 7.8 0.00 0.00 0.00 66 1018.4
20260506161553 65 352 2.6 7.0 0.00 0.00 0.00 65 1018.5
20260506160107 64 5 1.7 5.2 0.00 0.00 0.00 67 1018.4
20260506154554 64 338 1.7 5.2 0.00 0.00 0.00 68 1018.3
20260506153055 63 347 1.7 5.2 0.00 0.00 0.00 69 1018.4
20260506151555 63 15 0.9 3.5 0.00 0.00 0.00 70 1018.6
20260506150052 63 316 0.9 3.5 0.00 0.00 0.00 70 1018.5
20260506144555 61 0 0.0 2.6 0.00 0.01 0.00 74 1018.5
20260506143056 59 82 0.9 2.6 0.00 0.01 0.00 76 1018.5
20260506141611 57 67 1.7 3.5 0.00 0.01 0.00 79 1018.4
20260506140050 56 80 1.7 5.2 0.00 0.01 0.00 81 1018.4